[[{"header":{"parameterUnit":"m.s-1","parameterCategory":1,"la1":30.2991,"la2":30.254,"lo1":-89.0895,"lo2":-89.0444,"dy":0.0017,"dx":0.0017,"nx":28,"ny":28,"refTime":"2024-11-22T09:00:00:Z","depth":0,"parameterNumber":2,"parameterNumberName":"U-component_of_WINDS"},"data":[0,0,0,0,0,0,0,0,0,0,0,0,0,0,0,0,0,0,0,0,0,0,0,0,0,0,0,0,0,0,0,0,0,0,0,0,0,0,0,0,0,0,0,0,0,0,0,0,0,0,0,0,0,0,0,0,0,0,-2.8497,-2.8498,0,-2.8527,-2.8528,-2.8528,-2.8469,-2.8467,-2.8465,-2.8463,-2.8492,-2.8495,-2.8497,0,0,0,0,0,0,0,0,0,0,0,0,0,-2.8388,-2.839,-2.8497,-2.8498,-2.8498,-2.8527,-2.8528,-2.8528,-2.8469,-2.8467,-2.8464,-2.8462,-2.8491,-2.8494,-2.8498,0,0,0,0,0,0,0,0,0,0,0,0,0,-2.8428,-2.8391,-2.8497,-2.8472,-2.847,-2.8527,-2.8528,-2.8528,-2.8469,-2.8467,-2.8464,-2.8461,-2.849,-2.8494,-2.8498,-2.858,0,0,-2.851,-2.8512,0,0,0,0,0,0,0,0,-2.8426,-2.8432,-2.8476,-2.8474,-2.8472,-2.8491,-2.85,-2.8546,-2.847,-2.847,-2.8463,-2.8459,-2.8494,-2.8498,-2.851,-2.8582,-2.8583,-2.851,-2.8513,-2.8514,-2.8515,0,0,0,0,0,0,0,-2.8423,-2.8431,-2.8509,-2.8476,-2.8474,-2.8459,-2.8461,-2.8508,-2.8498,-2.847,-2.8465,-2.847,-2.8493,-2.8506,-2.851,-2.8583,-2.851,-2.8514,-2.8516,-2.8517,-2.8723,-2.8726,0,0,0,0,0,0,-2.8424,-2.8429,-2.8508,-2.851,-2.8441,-2.8463,-2.8466,-2.8488,-2.8497,-2.8496,-2.8472,-2.8467,-2.8501,-2.8505,-2.8511,-2.8607,-2.8514,-2.8518,-2.852,-2.872,-2.8724,-2.8728,0,0,0,0,0,0,-2.8422,-2.8431,-2.8507,-2.8468,-2.8477,-2.8468,-2.8493,-2.849,-2.8503,-2.8499,-2.8497,-2.8488,-2.8499,-2.8505,-2.8563,-2.8607,-2.852,-2.8523,-2.8717,-2.8722,-2.8726,-2.8801,0,0,0,0,0,0,-2.8419,-2.8431,-2.8463,-2.8469,-2.8479,-2.856,-2.8496,-2.8493,-2.851,-2.8504,-2.8513,-2.8512,-2.8497,-2.8558,-2.8567,-2.8611,-2.8526,-2.8713,-2.8719,-2.8724,-2.8794,-2.8807,-2.8818,0,0,0,0,0,-2.8415,-2.8482,-2.8465,-2.8475,-2.8518,-2.8563,-2.8568,-2.855,-2.8514,-2.8545,-2.8543,-2.8512,-2.8601,-2.8564,-2.8574,-2.862,-2.871,-2.8717,-2.8724,-2.8789,-2.8805,-2.8818,0,0,0,0,0,0,-2.8481,-2.8483,-2.8463,-2.8535,-2.8549,-2.8553,-2.8591,-2.8567,-2.8591,-2.8584,-2.856,-2.8562,-2.8625,-2.8628,-2.8587,-2.8699,-2.8649,-2.8659,-2.8695,-2.871,-2.8722,-2.872,-2.8529,0,0,0,0,0,-2.8504,-2.854,-2.8539,-2.8603,-2.8611,-2.86,-2.8619,-2.8603,-2.8617,-2.8622,-2.8624,-2.8638,-2.8669,-2.869,-2.8718,-2.8794,-2.8795,-2.8831,-2.8843,-2.8853,-2.8861,-2.8901,-2.8916,-2.8751,-2.8751,-2.8751,0,0,-2.8551,-2.8557,-2.8581,-2.8616,-2.8625,-2.8662,-2.8606,-2.8648,-2.8675,-2.8629,-2.8683,-2.8685,-2.8699,-2.8767,-2.8796,-2.8771,-2.8907,-2.8862,-2.887,-2.8873,-2.891,-2.8925,-2.8939,-2.8756,-2.8755,-2.8754,0,0,-2.8656,-2.8665,-2.8718,-2.8728,-2.8743,-2.8735,-2.8748,-2.8756,-2.8755,-2.881,-2.8776,-2.8808,-2.8862,-2.8873,-2.8886,-2.8995,-2.8967,-2.9005,-2.9068,-2.9107,-2.912,-2.9132,-2.917,-2.9184,-2.9013,-2.9014,-2.9014,0,-2.8713,-2.8769,-2.8748,-2.8793,-2.8809,-2.8769,-2.8822,-2.8833,-2.8856,-2.8868,-2.884,-2.8907,-2.8913,-2.8982,-2.9009,-2.9021,-2.9034,-2.9004,-2.912,-2.9132,-2.9142,-2.9178,-2.9193,-2.9018,-2.9018,-2.9017,-2.9017,0,-2.8837,-2.8876,-2.8917,-2.8941,-2.8962,-2.9011,-2.8997,-2.902,-2.9003,-2.8999,-2.9054,-2.9061,-2.909,-2.9105,-2.9089,-2.9172,-2.9156,-2.9124,-2.9073,-2.9162,-2.9196,-2.921,-2.9024,-2.9023,-2.9022,-2.902,0,0,-2.8984,-2.8996,-2.9012,-2.9022,-2.9035,-2.9064,-2.9111,-2.9139,-2.916,-2.9177,-2.9215,-2.9262,-2.9233,-2.9247,-2.9232,-2.9266,-2.9351,-2.923,-2.923,-2.9252,-2.9442,-2.9465,-2.9482,-2.9333,-2.9336,-2.9338,-2.9441,0,-2.9088,-2.9169,-2.9152,-2.9231,-2.9266,-2.9229,-2.9269,-2.9281,-2.9278,-2.9307,-2.9303,-2.9337,-2.9296,-2.9305,-2.9337,-2.9334,-2.9389,-2.9327,-2.9367,-2.9369,-2.9364,-2.9499,-2.9524,-2.9621,-2.9454,-2.9456,-2.9458,0,-2.922,-2.9243,-2.9325,-2.9332,-2.9347,-2.9383,-2.9408,-2.9436,-2.9449,-2.9444,-2.9461,-2.9438,-2.9484,-2.9433,-2.9495,-2.9453,-2.9468,-2.9469,-2.9473,-2.9475,-2.9418,-2.9504,-2.9651,-2.9665,-2.9478,-2.9477,-2.9475,0,-2.9318,-2.9369,-2.9425,-2.9435,-2.9445,-2.9471,-2.9477,-2.9487,-2.9505,-2.9526,-2.9537,-2.9564,-2.9578,-2.9598,-2.9583,-2.9548,-2.9647,-2.9595,-2.9644,-2.9644,-2.9666,-2.9664,-2.9816,-2.9678,-2.9677,-2.9677,-2.9677,0,-2.9435,-2.9487,-2.9469,-2.9503,-2.956,-2.954,-2.9596,-2.9597,-2.9606,-2.9639,-2.9609,-2.964,-2.9619,-2.9649,-2.9638,-2.969,-2.9697,-2.9694,-2.969,-2.9696,-2.9696,-2.9705,-2.9698,-2.9681,-2.968,-2.9679,-2.9679,0,-2.9554,-2.9544,-2.9602,-2.9607,-2.961,-2.9651,-2.9655,-2.9686,-2.9681,-2.9723,-2.9732,-2.9723,-2.9757,-2.9744,-2.978,-2.9772,-2.9839,-2.9827,-2.9835,-2.9831,-2.988,-2.9875,-3.0042,-3.0062,-2.9912,-2.9913,-2.9914,0,-2.9629,-2.9668,-2.9677,-2.9697,-2.9705,-2.9738,-2.9756,-2.9738,-2.9758,-2.9775,-2.9805,-2.9835,-2.9859,-2.9914,-2.9911,-2.9937,-2.9925,-2.9982,-2.9929,-2.9933,-2.9925,-2.9922,-2.9925,-2.9992,-2.9994,-2.9995,-2.9996,0,-2.9763,-2.9756,-2.9784,-2.981,-2.9833,-2.9852,-2.9869,-2.9887,-2.987,-2.9894,-2.9928,-2.9946,-2.9982,-3.0013,-3.0037,-3.0042,-3.0016,-3.0013,-3.0026,-3.0032,-3.0034,-3.0033,-2.9862,-3.0009,-3.0008,-3.0007,-3.0006,-3.0006,-2.9861,-2.9894,-2.9905,-2.9937,-2.9948,-2.9964,-2.9994,-2.9992,-3.0021,-3.0049,-3.0036,-3.0075,-3.0086,-3.0116,-3.0124,-3.0154,-3.0132,-3.015,-3.0155,-3.0159,-3.0165,-3.0031,-3.0158,-3.0158,-3.0158,-3.0157,-3.0157,0,-2.9993,-2.9998,-3.0028,-3.0052,-3.0077,-3.0052,-3.0069,-3.0091,-3.0126,-3.0139,-3.0163,-3.0202,-3.0231,-3.023,-3.0257,-3.0281,-3.027,-3.0289,-3.0286,-3.0288,-3.0184,-3.017,-3.0297,-3.0297,-3.0297,-3.0297,-3.0297,-3.0297,-3.0064,-3.0118,-3.0112,-3.017,-3.0175,-3.0214,-3.0226,-3.024,-3.025,-3.0295,-3.032,-3.0319,-3.0326,-3.0353,-3.0379,-3.0378,-3.0389,-3.0412,-3.0407,-3.0309,-3.0295,-3.0282,-3.0269,-3.0415,-3.0415,-3.0508,-3.0509,-3.0509]},{"header":{"parameterUnit":"m.s-1","parameterCategory":1,"la1":30.2991,"la2":30.254,"lo1":-89.0895,"lo2":-89.0444,"dy":0.0017,"dx":0.0017,"nx":28,"ny":28,"refTime":"2024-11-22T09:00:00:Z","depth":0,"parameterNumber":3,"parameterNumberName":"V-component_of_WINDS"},"data":[0,0,0,0,0,0,0,0,0,0,0,0,0,0,0,0,0,0,0,0,0,0,0,0,0,0,0,0,0,0,0,0,0,0,0,0,0,0,0,0,0,0,0,0,0,0,0,0,0,0,0,0,0,0,0,0,0,0,-1.0357,-1.0357,0,-1.0402,-1.0403,-1.0403,-1.0416,-1.0416,-1.0416,-1.0415,-1.0463,-1.0464,-1.0465,0,0,0,0,0,0,0,0,0,0,0,0,0,-1.0281,-1.0282,-1.0357,-1.0357,-1.0358,-1.0402,-1.0403,-1.0403,-1.0416,-1.0416,-1.0415,-1.0415,-1.0462,-1.0464,-1.0466,0,0,0,0,0,0,0,0,0,0,0,0,0,-1.0319,-1.0283,-1.0357,-1.037,-1.0371,-1.0402,-1.0403,-1.0404,-1.0416,-1.0416,-1.0415,-1.0415,-1.0461,-1.0464,-1.0466,-1.0487,0,0,-1.0473,-1.0474,0,0,0,0,0,0,0,0,-1.0317,-1.0322,-1.0367,-1.0369,-1.0371,-1.0403,-1.0393,-1.0432,-1.0416,-1.0399,-1.0415,-1.0415,-1.0443,-1.0447,-1.0456,-1.049,-1.0492,-1.0473,-1.0474,-1.0475,-1.0476,0,0,0,0,0,0,0,-1.0314,-1.032,-1.0375,-1.0368,-1.037,-1.0373,-1.0378,-1.0401,-1.0423,-1.0401,-1.0402,-1.0407,-1.0444,-1.0454,-1.0457,-1.0492,-1.0473,-1.0475,-1.0476,-1.0477,-1.0544,-1.0545,0,0,0,0,0,0,-1.0309,-1.0318,-1.0373,-1.0376,-1.0342,-1.0375,-1.038,-1.0393,-1.0422,-1.0427,-1.0407,-1.0407,-1.045,-1.0455,-1.0459,-1.0486,-1.0475,-1.0477,-1.0479,-1.0544,-1.0545,-1.0545,0,0,0,0,0,0,-1.0308,-1.0314,-1.0371,-1.0347,-1.0355,-1.0376,-1.0391,-1.0394,-1.0404,-1.0427,-1.0431,-1.0413,-1.045,-1.0456,-1.048,-1.0487,-1.0478,-1.048,-1.0544,-1.0544,-1.0545,-1.0539,0,0,0,0,0,0,-1.0305,-1.0313,-1.0322,-1.0347,-1.0356,-1.0392,-1.0391,-1.0395,-1.0408,-1.0409,-1.0434,-1.0438,-1.045,-1.0477,-1.0482,-1.049,-1.0482,-1.0543,-1.0544,-1.0545,-1.0539,-1.0539,-1.054,0,0,0,0,0,-1.0303,-1.0319,-1.0322,-1.0329,-1.0367,-1.0392,-1.0397,-1.041,-1.0408,-1.0417,-1.0432,-1.0437,-1.0486,-1.0479,-1.0485,-1.0494,-1.0543,-1.0544,-1.0545,-1.0538,-1.0539,-1.054,0,0,0,0,0,0,-1.0294,-1.0322,-1.0327,-1.0351,-1.0369,-1.0394,-1.0405,-1.0411,-1.043,-1.043,-1.0446,-1.0452,-1.0474,-1.0487,-1.0479,-1.0516,-1.0514,-1.0517,-1.0507,-1.0508,-1.0509,-1.0505,-1.0484,0,0,0,0,0,-1.0295,-1.0313,-1.0337,-1.0356,-1.0365,-1.0384,-1.0395,-1.0404,-1.0423,-1.0431,-1.0447,-1.0466,-1.0485,-1.0497,-1.0516,-1.054,-1.0546,-1.055,-1.055,-1.0551,-1.0553,-1.0565,-1.0567,-1.0548,-1.0548,-1.0548,0,0,-1.0298,-1.0315,-1.0326,-1.0355,-1.037,-1.0388,-1.039,-1.0409,-1.0423,-1.0434,-1.0457,-1.047,-1.0491,-1.0515,-1.0526,-1.0526,-1.0559,-1.0552,-1.0552,-1.0554,-1.0567,-1.0568,-1.057,-1.0549,-1.0549,-1.0549,0,0,-1.0311,-1.0326,-1.0344,-1.0358,-1.038,-1.0393,-1.0397,-1.0421,-1.0429,-1.0453,-1.0461,-1.0478,-1.0511,-1.0525,-1.0537,-1.0555,-1.0561,-1.0561,-1.0565,-1.0577,-1.0578,-1.058,-1.0586,-1.0588,-1.0563,-1.0563,-1.0563,0,-1.0311,-1.0339,-1.0352,-1.0371,-1.0383,-1.0393,-1.0411,-1.0425,-1.0452,-1.046,-1.046,-1.0501,-1.0516,-1.0543,-1.0547,-1.0557,-1.0562,-1.0558,-1.0577,-1.0579,-1.058,-1.0586,-1.0588,-1.0563,-1.0563,-1.0563,-1.0563,0,-1.0337,-1.0356,-1.0368,-1.0393,-1.0407,-1.0425,-1.0441,-1.0454,-1.0461,-1.0473,-1.0497,-1.0515,-1.0538,-1.0545,-1.0553,-1.0573,-1.0572,-1.0574,-1.0572,-1.0582,-1.0587,-1.059,-1.0562,-1.0562,-1.0562,-1.0562,0,0,-1.0347,-1.0379,-1.0383,-1.0395,-1.0419,-1.0434,-1.0452,-1.0474,-1.0484,-1.0502,-1.0518,-1.0545,-1.0547,-1.056,-1.057,-1.058,-1.0592,-1.0581,-1.0582,-1.0582,-1.0615,-1.0613,-1.0616,-1.0596,-1.0597,-1.0597,-1.0613,0,-1.0363,-1.0396,-1.0409,-1.0435,-1.0453,-1.0462,-1.0478,-1.0495,-1.0506,-1.0523,-1.0535,-1.0554,-1.0555,-1.0563,-1.0574,-1.0589,-1.0599,-1.0588,-1.0611,-1.0611,-1.0605,-1.0619,-1.0617,-1.0632,-1.0616,-1.0616,-1.0616,0,-1.0387,-1.0404,-1.0433,-1.0455,-1.0462,-1.0476,-1.0497,-1.0512,-1.0531,-1.0539,-1.0553,-1.0562,-1.0581,-1.0578,-1.0604,-1.0596,-1.0606,-1.0615,-1.0615,-1.0618,-1.0614,-1.0622,-1.0637,-1.0639,-1.062,-1.062,-1.062,0,-1.039,-1.0421,-1.0442,-1.0452,-1.0478,-1.0487,-1.0499,-1.0517,-1.0529,-1.0547,-1.0555,-1.0575,-1.0586,-1.0601,-1.0615,-1.0611,-1.064,-1.0638,-1.0646,-1.0646,-1.0652,-1.0651,-1.0668,-1.0659,-1.0659,-1.0659,-1.0659,0,-1.0407,-1.0424,-1.0444,-1.0457,-1.0476,-1.049,-1.0508,-1.052,-1.0536,-1.0552,-1.0561,-1.0575,-1.0592,-1.0608,-1.0619,-1.0639,-1.0644,-1.0651,-1.0653,-1.065,-1.0649,-1.0656,-1.0656,-1.0659,-1.0659,-1.0659,-1.0659,0,-1.0414,-1.0429,-1.0452,-1.0474,-1.048,-1.0493,-1.0512,-1.0525,-1.0537,-1.0556,-1.0561,-1.0579,-1.0599,-1.0614,-1.0639,-1.0646,-1.0667,-1.067,-1.0661,-1.0662,-1.0669,-1.0668,-1.0692,-1.0695,-1.0683,-1.0684,-1.0684,0,-1.0424,-1.0437,-1.046,-1.0471,-1.0482,-1.0499,-1.0511,-1.0525,-1.0537,-1.056,-1.0569,-1.0589,-1.0606,-1.0636,-1.0652,-1.0671,-1.0675,-1.0682,-1.0678,-1.0673,-1.0674,-1.0673,-1.0675,-1.0682,-1.0682,-1.0682,-1.0682,0,-1.0439,-1.0445,-1.0462,-1.0481,-1.0495,-1.0511,-1.0527,-1.0535,-1.0552,-1.0565,-1.0585,-1.0598,-1.0623,-1.0643,-1.0663,-1.0675,-1.0681,-1.0683,-1.0686,-1.0683,-1.0676,-1.0679,-1.0662,-1.0683,-1.0683,-1.0683,-1.0683,-1.0683,-1.0447,-1.0459,-1.0477,-1.0496,-1.0509,-1.0524,-1.0536,-1.0549,-1.0566,-1.0587,-1.0595,-1.0615,-1.0633,-1.0661,-1.0673,-1.0689,-1.0689,-1.0693,-1.0694,-1.0695,-1.0695,-1.0674,-1.0693,-1.0693,-1.0693,-1.0693,-1.0693,0,-1.0463,-1.0475,-1.0491,-1.0513,-1.0527,-1.0532,-1.0549,-1.0561,-1.0578,-1.0595,-1.0611,-1.0633,-1.0652,-1.0668,-1.0688,-1.0697,-1.0701,-1.0702,-1.0701,-1.0704,-1.0693,-1.0689,-1.0699,-1.0699,-1.0699,-1.0699,-1.0699,-1.0699,-1.0472,-1.0492,-1.05,-1.0527,-1.0539,-1.0558,-1.0568,-1.0581,-1.0594,-1.0618,-1.0634,-1.0644,-1.0661,-1.0681,-1.0699,-1.0703,-1.071,-1.071,-1.0715,-1.0705,-1.0705,-1.0704,-1.07,-1.0712,-1.0712,-1.0724,-1.0725,-1.0725]}]]